Regional Weather Roundup
Issued by NWS

Home | Current Version | Previous Version | Text Only | Print | Product List | Glossary On
Versions: 1 2 3 4 5 6 7 8 9 10 11 12 13 14 15 16 17 18 19 20 21 22 23 24 25 26 27 28 29 30 31 32 33 34 35 36 37 38 39 40 41 42 43 44 45 46 47 48 49 50
086
ASUS43 KLSX 250410
RWRMO

WEATHER SUMMARY FOR MISSOURI
NATIONAL WEATHER SERVICE SPRINGFIELD MO
1100 PM CDT TUE APR 24 2018

NOTE: "FAIR" INDICATES FEW OR NO CLOUDS BELOW 12,000 FEET WITH NO
       SIGNIFICANT WEATHER AND/OR OBSTRUCTIONS TO VISIBILITY.
       CURRENT SKY AND/OR WEATHER CONDITIONS ARE NOT AVAILABLE FOR
       CHILLICOTHE AND FARMINGTON.

MOZ001>031-035>038-043-044-053-054-250500-
...NORTHERN AND WESTERN MISSOURI...

CITY           SKY/WX    TMP DP  RH WIND       PRES   REMARKS
KANSAS CTY INT CLOUDY    59  45  59 N17       30.12F
KANSAS C DTWN  CLOUDY    62  45  53 NW10G18   30.12S
LEE`S SUMMIT   CLOUDY    61  46  57 NW15      30.12S
ST JOSEPH      CLOUDY    59  48  67 N22G29    30.15R
CHILLICOTHE      N/A     65  39  38 NW6       30.09R
KIRKSVILLE     PTCLDY    59  41  51 N9        30.08R

$$
MOZ066>068-077>081-088>096-101>105-250500-
...SOUTHWEST MISSOURI...

CITY           SKY/WX    TMP DP  RH WIND       PRES   REMARKS
SPRINGFIELD    PTCLDY    54  41  61 SW3       30.07S
JOPLIN         CLEAR     56  42  59 CALM      30.08F
BRANSON        CLOUDY    63  39  42 CALM      30.09S

$$
MOZ032>034-039>042-045>050-055>058-069>072-250500-
...CENTRAL MISSOURI...

CITY           SKY/WX    TMP DP  RH WIND       PRES   REMARKS
COLUMBIA       CLOUDY    63  34  33 NW7       30.04S
JEFFERSON CITY CLOUDY    56  43  61 CALM      30.04R
ROLLA          CLEAR     56  45  66 NW5       30.05S
SEDALIA        CLOUDY    66  36  32 W5        30.06F
WARRENSBURG    CLOUDY    63  43  48 NW14G20   30.09S
OSAGE BEACH    CLOUDY    59  44  57 N5        30.06S

$$
MOZ051-052-059>065-250500-
...EAST CENTRAL MISSOURI...

CITY           SKY/WX    TMP DP  RH WIND       PRES   REMARKS
ST LOUIS INTL  PTCLDY    57  45  64 CALM      30.00S
SPIRIT OF STL  CLEAR     51  47  86 SW3       30.00S
ST CHARLES     CLEAR     56  42  59 NW7       29.99S

$$
MOZ072>076-082>087-097>100-106>115-250500-
...SOUTH CENTRAL AND SOUTHEAST MISSOURI...

CITY           SKY/WX    TMP DP  RH WIND       PRES   REMARKS
CAPE GIRARDEAU FAIR      51  50  96 W6        30.01S
FARMINGTON     PTCLDY    52  50  93 CALM      30.03S
POPLAR BLUFF   FAIR      54  53  97 CALM      30.02S
WEST PLAINS    CLEAR     55  47  74 CALM      30.06F

$$




USA.gov is the U.S. government's official web portal to all federal, state and local government web resources and services.